カタログに戻る

STARLINK-37070

運用中通信VLEO
NORAD 68280·PAYLOAD·🇺🇸 United States

打ち上げ Mar 19, 2026 から Vandenberg Space Force Base

Loading…

次のパス (今後24時間)

TLE

最新Source: CelesTrak SupGP

元期: Sep 15, 2026, 02:59 UTC

1 68280C 26055U   26258.12479167  .00017483  00000+0  51654-3 0  2586
2 68280  53.1572 154.6116 0001282  83.2261 177.4306 15.34381388    11

AllMySatでSTARLINK-37070をリアルタイム追跡

Download on the App Store